When you browse on this site, cookies collect data to enhance your experience and personalize the content and advertising you see.
Visit our Privacy Policy to learn more. By continuing to use the site, you agree to this use of cookies and data.

Meteo pe oră la Zhmerynka

Astăzi, 2 Iulie, Joi

Timp Temperatura Precipitaţii Vânt Presiune Umiditate
00:00 +20°C° 0 mm 1 m/s 732 mmHg 77%
01:00 +19°C° 0 mm 1 m/s 732 mmHg 77%
02:00 +19°C° 0 mm 1 m/s 732 mmHg 78%
03:00 +19°C° 0 mm 1 m/s 732 mmHg 79%
04:00 +19°C° 0 mm 1 m/s 732 mmHg 79%
05:00 +19°C° 0 mm 1 m/s 732 mmHg 80%
06:00 +21°C° 0 mm 1 m/s 732 mmHg 77%
07:00 +23°C° 0 mm 1 m/s 733 mmHg 73%
08:00 +25°C° 0 mm 2 m/s 733 mmHg 69%
09:00 +26°C° 0 mm 2 m/s 733 mmHg 66%
10:00 +27°C° 0 mm 2 m/s 733 mmHg 63%
11:00 +28°C° 0 mm 3 m/s 733 mmHg 60%
12:00 +28°C° 0 mm 3 m/s 733 mmHg 59%
13:00 +29°C° 0 mm 3 m/s 732 mmHg 58%
14:00 +29°C° 0 mm 3 m/s 732 mmHg 57%
15:00 +29°C° 0 mm 3 m/s 732 mmHg 58%
16:00 +29°C° 0 mm 3 m/s 732 mmHg 60%
17:00 +29°C° 0 mm 3 m/s 731 mmHg 61%
18:00 +27°C° 0 mm 3 m/s 731 mmHg 67%
19:00 +25°C° 0 mm 3 m/s 731 mmHg 72%
20:00 +24°C° 0 mm 3 m/s 731 mmHg 78%
21:00 +22°C° 0 mm 3 m/s 731 mmHg 78%
22:00 +21°C° 0 mm 3 m/s 731 mmHg 78%
23:00 +20°C° 0 mm 3 m/s 731 mmHg 79%

Mâine, 3 Iulie, Vineri

Timp Temperatura Precipitaţii Vânt Presiune Umiditate
00:00 +20°C° 0 mm 3 m/s 731 mmHg 78%
01:00 +20°C° 0 mm 3 m/s 731 mmHg 78%
02:00 +19°C° 0 mm 4 m/s 731 mmHg 78%
03:00 +19°C° 0 mm 3 m/s 731 mmHg 80%
04:00 +19°C° 0 mm 3 m/s 731 mmHg 81%
05:00 +19°C° 0 mm 3 m/s 730 mmHg 83%
06:00 +20°C° 0 mm 4 m/s 731 mmHg 79%
07:00 +22°C° 0 mm 4 m/s 731 mmHg 75%
08:00 +25°C° 0 mm 5 m/s 731 mmHg 71%
09:00 +26°C° 0 mm 5 m/s 731 mmHg 67%
10:00 +27°C° 0 mm 5 m/s 731 mmHg 63%
11:00 +29°C° 0 mm 5 m/s 731 mmHg 59%
12:00 +29°C° 0 mm 5 m/s 731 mmHg 58%
13:00 +29°C° 0 mm 5 m/s 731 mmHg 57%
14:00 +30°C° 0 mm 5 m/s 730 mmHg 56%
15:00 +30°C° 0 mm 5 m/s 730 mmHg 59%
16:00 +29°C° 0 mm 4 m/s 730 mmHg 62%
17:00 +29°C° 0 mm 3 m/s 730 mmHg 64%
18:00 +27°C° 0.1 mm 3 m/s 730 mmHg 70%
19:00 +25°C° 0.1 mm 2 m/s 730 mmHg 76%
20:00 +23°C° 0.1 mm 2 m/s 730 mmHg 82%
21:00 +23°C° 0.1 mm 2 m/s 730 mmHg 84%
22:00 +21°C° 0.1 mm 2 m/s 731 mmHg 85%
23:00 +21°C° 0.1 mm 2 m/s 731 mmHg 87%

Poimâine, 4 Iulie, Sâmbătă

Timp Temperatura Precipitaţii Vânt Presiune Umiditate
00:00 +20°C° 0.3 mm 2 m/s 731 mmHg 89%
01:00 +20°C° 0.3 mm 2 m/s 731 mmHg 90%
02:00 +20°C° 0.3 mm 2 m/s 731 mmHg 91%
03:00 +20°C° 0.2 mm 2 m/s 731 mmHg 92%
04:00 +20°C° 0.2 mm 2 m/s 731 mmHg 92%
05:00 +20°C° 0.2 mm 2 m/s 731 mmHg 92%
06:00 +20°C° 0.2 mm 2 m/s 732 mmHg 91%
07:00 +21°C° 0.2 mm 2 m/s 732 mmHg 90%
08:00 +21°C° 0.2 mm 2 m/s 732 mmHg 89%
09:00 +23°C° 0 mm 2 m/s 733 mmHg 85%
10:00 +24°C° 0 mm 2 m/s 733 mmHg 82%
11:00 +25°C° 0 mm 2 m/s 733 mmHg 78%
12:00 +25°C° 0.2 mm 2 m/s 733 mmHg 75%
13:00 +26°C° 0.2 mm 2 m/s 733 mmHg 73%
14:00 +27°C° 0.2 mm 3 m/s 733 mmHg 71%
15:00 +26°C° 0.8 mm 3 m/s 733 mmHg 74%
16:00 +26°C° 0.8 mm 3 m/s 733 mmHg 76%
17:00 +26°C° 0.8 mm 3 m/s 732 mmHg 79%
18:00 +25°C° 0.6 mm 3 m/s 733 mmHg 83%
19:00 +24°C° 0.6 mm 3 m/s 733 mmHg 87%
20:00 +22°C° 0.6 mm 3 m/s 733 mmHg 91%
21:00 +21°C° 1.1 mm 2 m/s 733 mmHg 91%
22:00 +21°C° 1.1 mm 2 m/s 733 mmHg 92%
23:00 +20°C° 1.1 mm 2 m/s 733 mmHg 93%

5 Iulie, Duminică

Timp Temperatura Precipitaţii Vânt Presiune Umiditate
00:00 +20°C° 0.2 mm 2 m/s 733 mmHg 94%
01:00 +20°C° 0.2 mm 2 m/s 733 mmHg 94%
02:00 +20°C° 0.2 mm 3 m/s 733 mmHg 95%
03:00 +20°C° 0.5 mm 3 m/s 733 mmHg 95%
04:00 +19°C° 0.5 mm 2 m/s 733 mmHg 95%
05:00 +19°C° 0.5 mm 2 m/s 733 mmHg 96%
06:00 +19°C° 0.2 mm 2 m/s 733 mmHg 96%
07:00 +20°C° 0.2 mm 3 m/s 733 mmHg 95%
08:00 +20°C° 0.2 mm 3 m/s 733 mmHg 95%
09:00 +20°C° 0 mm 3 m/s 733 mmHg 93%
10:00 +21°C° 0 mm 3 m/s 733 mmHg 91%
11:00 +22°C° 0 mm 3 m/s 733 mmHg 89%
12:00 +24°C° 0.2 mm 3 m/s 733 mmHg 83%
13:00 +25°C° 0.2 mm 3 m/s 733 mmHg 77%
14:00 +26°C° 0.2 mm 3 m/s 733 mmHg 72%
15:00 +26°C° 0.5 mm 3 m/s 733 mmHg 72%
16:00 +26°C° 0.5 mm 3 m/s 733 mmHg 73%
17:00 +26°C° 0.5 mm 3 m/s 733 mmHg 74%
18:00 +25°C° 0.6 mm 2 m/s 733 mmHg 79%
19:00 +24°C° 0.6 mm 2 m/s 733 mmHg 83%
20:00 +21°C° 0.6 mm 2 m/s 733 mmHg 88%
21:00 +21°C° 0 mm 2 m/s 733 mmHg 89%
22:00 +21°C° 0 mm 1 m/s 733 mmHg 91%
23:00 +20°C° 0 mm 1 m/s 733 mmHg 92%

6 Iulie, Luni

Timp Temperatura Precipitaţii Vânt Presiune Umiditate
00:00 +20°C° 0 mm 1 m/s 733 mmHg 92%
01:00 +20°C° 0 mm 1 m/s 733 mmHg 93%
02:00 +20°C° 0 mm 1 m/s 732 mmHg 93%
03:00 +20°C° 0 mm 1 m/s 733 mmHg 93%
04:00 +19°C° 0 mm 1 m/s 733 mmHg 94%
05:00 +19°C° 0 mm 1 m/s 733 mmHg 94%
06:00 +21°C° 0 mm 1 m/s 733 mmHg 89%
07:00 +22°C° 0 mm 1 m/s 733 mmHg 85%
08:00 +24°C° 0 mm 2 m/s 733 mmHg 80%
09:00 +25°C° 0 mm 1 m/s 733 mmHg 75%
10:00 +26°C° 0 mm 1 m/s 733 mmHg 71%
11:00 +27°C° 0 mm 1 m/s 733 mmHg 66%
12:00 +28°C° 0 mm 1 m/s 733 mmHg 64%
13:00 +28°C° 0 mm 1 m/s 733 mmHg 63%
14:00 +26°C° 0 mm 0 m/s 732 mmHg 61%
15:00 +26°C° 0.1 mm 0 m/s 732 mmHg 61%
16:00 +28°C° 0.1 mm 1 m/s 732 mmHg 62%
17:00 +28°C° 0.1 mm 1 m/s 732 mmHg 62%
18:00 +27°C° 0.1 mm 1 m/s 732 mmHg 67%
19:00 +25°C° 0.1 mm 1 m/s 731 mmHg 73%
20:00 +24°C° 0.1 mm 1 m/s 731 mmHg 78%
21:00 +23°C° 0 mm 1 m/s 731 mmHg 81%
22:00 +22°C° 0 mm 1 m/s 731 mmHg 84%
23:00 +22°C° 0 mm 1 m/s 731 mmHg 87%

7 Iulie, Marţi

Timp Temperatura Precipitaţii Vânt Presiune Umiditate
00:00 +21°C° 0 mm 1 m/s 731 mmHg 88%
01:00 +21°C° 0 mm 1 m/s 731 mmHg 89%
02:00 +21°C° 0 mm 1 m/s 731 mmHg 89%
03:00 +21°C° 0 mm 1 m/s 731 mmHg 90%
04:00 +21°C° 0 mm 1 m/s 731 mmHg 90%
05:00 +20°C° 0 mm 2 m/s 730 mmHg 91%
06:00 +21°C° 0 mm 2 m/s 731 mmHg 87%
07:00 +24°C° 0 mm 2 m/s 731 mmHg 82%
08:00 +25°C° 0 mm 2 m/s 731 mmHg 78%
09:00 +26°C° 0.2 mm 2 m/s 731 mmHg 73%
10:00 +27°C° 0.2 mm 2 m/s 730 mmHg 69%
11:00 +28°C° 0.2 mm 2 m/s 730 mmHg 64%
12:00 +29°C° 0.3 mm 2 m/s 730 mmHg 62%
13:00 +29°C° 0.3 mm 2 m/s 730 mmHg 60%
14:00 +29°C° 0.3 mm 1 m/s 729 mmHg 58%
15:00 +29°C° 0.4 mm 1 m/s 729 mmHg 61%
16:00 +28°C° 0.4 mm 2 m/s 729 mmHg 65%
17:00 +28°C° 0.4 mm 2 m/s 729 mmHg 69%
18:00 +26°C° 0.4 mm 2 m/s 729 mmHg 73%
19:00 +25°C° 0.4 mm 2 m/s 729 mmHg 77%
20:00 +24°C° 0.4 mm 3 m/s 729 mmHg 82%
21:00 +22°C° 0.3 mm 3 m/s 729 mmHg 85%
22:00 +21°C° 0.3 mm 3 m/s 729 mmHg 87%
23:00 +20°C° 0.3 mm 3 m/s 729 mmHg 90%
Arată mai mult